Regional Weather Roundup
Issued by NWS

Home | Current Version | Previous Version | Graphics & Text | Print | Product List | Glossary Off
Versions: 1 2 3 4 5 6 7 8 9 10 11 12 13 14 15 16 17 18 19 20 21 22 23 24 25 26 27 28 29 30 31 32 33 34 35 36 37 38 39 40 41 42 43 44 45 46 47 48 49 50

000
ASUS43 KMKX 040521
RWRWI

WISCONSIN REGIONAL WEATHER ROUNDUP
NATIONAL WEATHER SERVICE MILWAUKEE/SULLIVAN WI
1100 PM CST SAT DEC 03 2016

NOTE: "FAIR" INDICATES FEW OR NO CLOUDS BELOW 12,000 FEET WITH NO
SIGNIFICANT WEATHER AND/OR OBSTRUCTIONS TO VISIBILITY.

WIZ001-002-006>008-014>016-023>028-040600-
NORTHWEST WISCONSIN

CITY           SKY/WX    TMP DP  RH WIND       PRES   REMARKS
SUPERIOR ARPT  CLOUDY    29  22  74 SE3       30.15F
ASHLAND        CLOUDY    30  22  72 SE5       30.18S WCI  25
HAYWARD        CLOUDY    28  20  71 S5        30.15F WCI  23
SIREN          CLOUDY    29  21  71 SE8       30.14S WCI  21
CUMBERLAND     CLOUDY    28  21  74 SE7       30.14F WCI  21
RICE LAKE      CLOUDY    29  22  75 SE9       30.17F WCI  21
CHETEK         CLOUDY    29  22  78 SE7       30.17F WCI  21
LADYSMITH      CLOUDY    28  24  84 SE3       30.19S
EAU CLAIRE     CLOUDY    30  23  75 SE5       30.17F WCI  25
MENOMONIE      CLOUDY    31  24  77 E7        30.18S WCI  24
NEW RICHMOND   CLOUDY    30  23  74 SE8       30.14F WCI  23
OSCEOLA        CLOUDY    31  24  76 SE5       30.17F WCI  26
$$

WIZ003>005-009-010-017-018-040600-
NORTH CENTRAL WISCONSIN

CITY           SKY/WX    TMP DP  RH WIND       PRES   REMARKS
MANITOWISH WTR CLOUDY    26  21  79 SE5       30.15S WCI  21
ARBOR VITAE    CLOUDY    29  22  74 CALM      30.15F
WOODRUFF       CLOUDY    29  22  74 CALM      30.15F
RHINELANDER    CLOUDY    28  21  75 S3        30.17S
EAGLE RIVER    CLOUDY    26  18  72 S5        30.16S WCI  21
LAND O LAKES   CLOUDY    27  21  77 CALM      30.17F
PHILLIPS       CLOUDY    27  22  84 SW3       30.16R
TOMAHAWK       CLOUDY    27  22  80 CALM      30.18S
MEDFORD        MOCLDY    25  21  85 CALM      30.17R
MERRILL        CLOUDY    28  22  76 CALM      30.19S
$$

WIZ029-030-035-036-043>047-040600-
CENTRAL WISCONSIN

CITY           SKY/WX    TMP DP  RH WIND       PRES   REMARKS
WAUSAU         CLOUDY    27  21  78 SE5       30.19S WCI  22
MOSINEE        CLOUDY    28  25  86 SE3       30.20R
MARSHFIELD     MOCLDY    27  22  81 SE3       30.19R
STEVENS POINT  CLOUDY    26  21  79 CALM      30.21S
WAUPACA        CLOUDY    31  24  75 CALM      30.23S
WAUTOMA        PTCLDY    28  22  78 SE3       30.24R
WISC RAPIDS    CLOUDY    28  23  81 SE5       30.22R WCI  23
CAMP DOUGLAS   CLOUDY    31  25  80 SE5       30.20S WCI  26
$$

WIZ011>013-019>022-031-037>040-048>050-040600-
NORTHEAST WISCONSIN

CITY           SKY/WX    TMP DP  RH WIND       PRES   REMARKS
ANTIGO         CLOUDY    27  21  80 CALM      30.18S
SHAWANO        CLOUDY    32  24  73 CALM      30.23F
OCONTO         CLOUDY    30  23  74 CALM      30.25R
STURGEON BAY   CLOUDY    31  24  75 S5        30.26R WCI  26
GREEN BAY      CLOUDY    33  26  75 S3        30.24F
MANITOWOC      CLOUDY    31  24  75 CALM      30.25F
APPLETON       CLOUDY    30  21  69 SE3       30.21F
CLINTONVILLE   CLOUDY    30  23  74 CALM      30.23S
OSHKOSH        CLOUDY    29  23  78 S3        30.23F
$$

WIZ032>034-041-042-053>061-040600-
SOUTHWEST WISCONSIN

CITY           SKY/WX    TMP DP  RH WIND       PRES   REMARKS
LA CROSSE      CLOUDY    34  26  72 SE6       30.20S WCI  29
SPARTA         CLOUDY    31  26  82 SE3       30.21S
VIROQUA        CLOUDY    30  27  90 SE9       30.18S WCI  21
BOSCOBEL       CLOUDY    34  27  75 VRB3      30.23S
PRAIRIE DU CHI LGT SNOW  34  28  78 SE5       30.22S WCI  30
PLATTEVILLE    CLOUDY    33  30  92 SE8       30.22S WCI  25
$$

WIZ056-057-062-063-064-067-068-040600-
SOUTH CENTRAL WISCONSIN

CITY           SKY/WX    TMP DP  RH WIND       PRES   REMARKS
REEDSBURG      CLOUDY    30  26  84 CALM      30.22S
BARABOO/DELLS  CLOUDY    30  25  81 S3        30.22R
LONE ROCK      CLOUDY    32  27  81 E3        30.23S
MINERAL POINT  PTCLDY    32  30  93 SE6       30.21F WCI  26
MADISON        MOCLDY    30  25  81 S6        30.23S WCI  24
MIDDLETON      MOCLDY    32  27  81 S5        30.23S WCI  28
WATERTOWN      CLOUDY    29  27  92 S5        30.24S WCI  24
MONROE         CLOUDY    32  28  86 SE5       30.22S WCI  27
JANESVILLE     MOCLDY    32  28  86 SE3       30.24S
$$

WIZ051-052-058>065-066-070>072-040600-
SOUTHEAST WISCONSIN

CITY           SKY/WX    TMP DP  RH WIND       PRES   REMARKS
MILWAUKEE      CLOUDY    31  21  66 SW3       30.26S
WAUKESHA       CLOUDY    28  23  80 SE3       30.26S
MILWAUKEE/TIMM MOCLDY    30  21  69 CALM      30.26S
RACINE         CLOUDY    31  22  69 CALM      30.28S
BURLINGTON     CLOUDY    29  25  83 CALM      30.26S
KENOSHA        PTCLDY    31  23  72 CALM      30.26F
FOND DU LAC    CLOUDY    30  22  72 SE6       30.24F WCI  24
SHEBOYGAN      CLOUDY    29  22  75 CALM      30.25F
WEST BEND      MOCLDY    30  27  86 CALM      30.25R
JUNEAU         PTCLDY    29  25  85 SE6       30.25R WCI  23
$$

LSZ147-162-040600-
LAKE SUPERIOR

STATION/POSITION TIME  TEMP    WIND        PRES    WAVE
                       AIR SEA DIR/SP/G            HT/PER
                 (UTC) (F)     (DEG/KT/KT) (MB)    (FT/S)
DEVILS ISLAND    0500   32     190/  7/  9 1022.5F
PORT WING        0430   30     140/  2/  4 1021.7F
SAXON HARBOR     0440   31     150/  1/  3 1022.0F
$$

LMZ867-665-643>646-040600-
LAKE MICHIGAN

STATION/POSITION TIME  TEMP    WIND        PRES    WAVE
                       AIR SEA DIR/SP/G            HT/PER
                 (UTC) (F)     (DEG/KT/KT) (MB)    (FT/S)
CHAMBERS ISLAND  0440   33     200/  5/  9 1023.4S
NORTHPORT PIER   0440   32      CALM  /  3 1024.0R
SISTER BAY       0423   33     210/  6/  8   N/A
ALGOMA LAKESHORE 0451          240/  5/  6   N/A
KEWAUNEE LAKESHO 0454   32     220/  3/  4 1024.0S
SHEBOYGAN LAKESH 0500   31     210/  2/  3 1025.1F
PORT WASHINGTON  0430   32     270/  2/  3 1025.7F
MILWAUKEE LAKESH 0500   33     220/  5/  6   N/A
S MID LAKE BUOY  0450   35 48  280/  2/  2 1025.1F   1
KENOSHA   LAKESH 0500   33     260/  3/  3 1024.7
$$

TC  - TEMPERATURE IN CELSIUS
VSB - VISIBILITY IN STATUTE MILES
WCI - WIND CHILL INDEX
HX  - HEAT INDEX





USA.gov is the U.S. government's official web portal to all federal, state and local government web resources and services.